Regional Weather Roundup
Issued by NWS

Home | Current Version | Previous Version | Graphics & Text | Print | Product List | Glossary On
Versions: 1 2 3 4 5 6 7 8 9 10 11 12 13 14 15 16 17 18 19 20 21 22 23 24 25 26 27 28 29 30 31 32 33 34 35 36 37 38 39 40 41 42 43 44 45 46 47 48 49 50
000
ASUS45 KABQ 282301
RWRNM
NEW MEXICO REGIONAL WEATHER ROUNDUP
NATIONAL WEATHER SERVICE ALBUQUERQUE NM
500 PM MDT TUE MAR 28 2017

NOTE: "FAIR" MEANS FEW OR NO CLOUDS BELOW 12,000 FEET AGL WITH NO
       SIGNIFICANT WEATHER OR OBSTRUCTIONS TO VISION.

      THIS PRODUCT IS RELEASED AS TWO VERSIONS.  ONE VERSION NEAR
      THE TOP OF THE HOUR CONTAINING PRELIMINARY DATA FROM ALBUQUERQUE
      AND OTHER STATIONS.  A FINAL VERSION WITH ADDITIONAL DATA IS
      ISSUED ABOUT 10 MINUTES AFTER THE HOUR.

NMZ501-503-504-510>518-290000-
NORTHWEST PLATEAU/NORTHCENTRAL MOUNTAINS

CITY           SKY/WX    TMP DP  RH WIND       PRES   REMARKS
FARMINGTON     FAIR      53  35  50 NW26G36   29.76F
LOS ALAMOS     PTSUNNY   39  33  79 SW12G20   29.81R WCI  32
SANTA FE       CLOUDY    47  40  76 SW24G31   29.77F
TAOS             N/A     37  28  70 NE8       29.81S WCI  31
ANGEL FIRE     LGT RAIN  35  31  87 W6G16     29.80R WCI  30

$$
NMZ402-403-502-505>509-290000-
WESTCENTRAL MOUNTAINS/SOUTHWEST MOUNTAINS

CITY           SKY/WX    TMP DP  RH WIND       PRES   REMARKS
GALLUP         LGT RAIN  45  36  70 NW10      29.86S
GRANTS         RAIN      43  33  66 NW16G31   29.86R
SILVER CITY    CLOUDY    56  24  28 W26G35    29.83S

$$
NMZ407-409-411-412-290000-
SOUTHERN DESERTS

CITY           SKY/WX    TMP DP  RH WIND       PRES   REMARKS
DEMING         PTSUNNY   60  27  28 W23G33    29.80S
LAS CRUCES     CLOUDY    50  35  55 N16G23    29.83R
HOLLOMAN AFB   PTSUNNY   60  29  31 W22       29.78F
ALAMOGORDO     PTSUNNY   59  28  31 SW14      29.76S
T OR C         PTSUNNY   56  29  35 VRB3      29.76F

$$
NMZ519>523-290000-
CENTRAL VALLEYS/CENTRAL HIGHLANDS

CITY           SKY/WX    TMP DP  RH WIND       PRES   REMARKS
ALBUQUERQUE    PTSUNNY   47  37  68 NE16      29.81S
DOUBLE EAGLE   PTSUNNY   46  37  71 NW12      29.81F
MORIARTY ARPT  PTSUNNY   43  38  85 N5        29.84S
CLINES CORNERS LGT RAIN  37  35  92 W16       29.83R WCI  28
BELEN          CLOUDY    53  31  43 N17G23    29.79R
SOCORRO        PTSUNNY   57  28  33 NW3       29.76F

$$
NMZ524>526-539-540-290000-
SOUTHCENTRAL MOUNTAINS

CITY           SKY/WX    TMP DP  RH WIND       PRES   REMARKS
RUIDOSO        NOT AVBL

$$
NMZ527>531-290000-
NORTHEAST HIGHLANDS/NORTHEAST PLAINS

CITY           SKY/WX    TMP DP  RH WIND       PRES   REMARKS
LAS VEGAS      FAIR      51  27  39 SW12      29.76F
RATON          CLOUDY    53  36  52 NE13      29.74S
CLAYTON        NOT AVBL

$$
NMZ532>537-290000-
EASTCENTRAL PLAINS

CITY           SKY/WX    TMP DP  RH WIND       PRES   REMARKS
TUCUMCARI      FAIR      60  49  66 NE12      29.67S
CANNON AFB     FAIR      71  34  26 W29G37    29.67R
CLOVIS AIRPORT PTSUNNY   72  34  25 W15       29.66R

$$
NMZ028-029-538-290000-
SOUTHEAST PLAINS

CITY           SKY/WX    TMP DP  RH WIND       PRES   REMARKS
ROSWELL        FAIR      70  20  15 W20       29.67
ARTESIA        FAIR      68  28  22 SW26G36   29.69R
CARLSBAD       FAIR      62  35  36 W46G59    29.68R
HOBBS          LGT RAIN  68  36  30 W31G47    29.66R


$$




USA.gov is the U.S. government's official web portal to all federal, state and local government web resources and services.